Location: Andershausen
(51.8462°N, 9.8595°E)
Time: 11:54:11
(UTC+00:00)

Cosmos 2297 Rocket - Pass Details

Date: 18 November 2025
Orbit: 837 x 844 km, 71.0° (Epoch: 09 December)

Event Time Altitude Azimuth Distance (km) Brightness Sun altitude
Rises 18:27:43 0° 328° (NNW) 3,412 5.8 -27.7°
Reaches altitude 10° 18:30:54 10° 346° (NNW) 2,475 4.8 -28.2°
Enters shadow 18:33:02 17° 6° (N) 2,039 4.1 -28.5°
